Location: ????????
(54.6123°N, 39.2099°E)
Time: 04:52:28
(UTC+00:00)

Cosmos 2341 Rocket - Pass Details

Date: 19 May 2025
Orbit: 966 x 1004 km, 82.9° (Epoch: 19 June)

Event Time Altitude Azimuth Distance (km) Brightness Sun altitude
Rises 18:05:39 0° 349° (N) 3,703 8.1 -4.7°
Reaches altitude 10° 18:08:15 10° 354° (N) 2,745 7.3 -5.0°
Maximum altitude 18:14:28 59° 73° (ENE) 1,117 4.2 -5.6°
Drops below altitude 10° 18:20:34 10° 153° (SSE) 2,708 5.7 -6.2°
Enters shadow 18:21:31 - 155° (SSE) 3,053 6.0 -6.3°
